Location: Andershausen
(51.8462°N, 9.8595°E)
Time: 06:21:28
(UTC+00:00)

Cosmos 371 Rocket - Pass Details

Date: 18 November 2025
Orbit: 674 x 690 km, 74.0° (Epoch: 11 December)

Event Time Altitude Azimuth Distance (km) Brightness Sun altitude
Rises 18:44:14 0° 223° (SW) 3,038 7.1 -30.3°
Reaches altitude 10° 18:46:37 10° 229° (SW) 2,129 6.3 -30.6°
Enters shadow 18:50:34 42° 279° (W) 977 4.4 -31.2°
